Satellite-Ground Cal/Val Site Overpasses Predictions

Prediction of Satellite NPP Overpassing Cal/Val Site: Antarctic Dome C

Ground Cal/Val Site Location: Latitude: -75.10, Longitude: 123.35; Satellite-Ground Site NADIR distance within 100 km.

Table of predicted overpasses for the next 14.0 days since TLE Epoch: 3/13/2020
Interval Starting Time Ending Time Minimum Distance Time Minimum Distance (km)
1 03/15/2020 15:00:52 03/15/2020 15:01:16 03/15/2020 15:01:04 58.25
2 03/16/2020 14:42:03 03/16/2020 14:42:27 03/16/2020 14:42:15 50.85
3 03/17/2020 07:43:43 03/17/2020 07:44:04 03/17/2020 07:43:53 71.06
4 03/18/2020 07:24:51 03/18/2020 07:25:18 03/18/2020 07:25:05 36.88
5 03/20/2020 15:07:19 03/20/2020 15:07:26 03/20/2020 15:07:22 96.12
6 03/21/2020 14:48:17 03/21/2020 14:48:46 03/21/2020 14:48:32 15.09
7 03/23/2020 07:31:07 03/23/2020 07:31:36 03/23/2020 07:31:22 2.26
8 03/26/2020 14:54:35 03/26/2020 14:55:04 03/26/2020 14:54:50 21.61


NCC Satellite Cal/Val Overpasses Prediction Service
